Saginaw Browne, MI

9:28 PM EDT on April 28, 2017 (GMT -0400)
Saginaw County-Browne

Weather History for KHYX - July, 2013

Change the Weather History Date:

Friday, July 5, 2013

  Actual Average (KMBS) Record (KMBS)
Temperature  
Mean Temperature 73 °F -  
Max Temperature 82 °F 79 °F 91 °F (2010)
Min Temperature 64 °F 56 °F 49 °F (1997)
Cooling Degree Days 8    
Growing Degree Days 23 (Base 50)    
Moisture  
Dew Point 64 °F    
Average Humidity 74    
Maximum Humidity 100    
Minimum Humidity 51    
Precipitation  
Precipitation 0.00 in - - ()
Sea Level Pressure  
Sea Level Pressure 30.08 in    
Wind  
Wind Speed 2 mph (WSW)    
Max Wind Speed 9 mph    
Max Gust Speed -    
Visibility 9 miles    
Events      
Averages and records for this station are not official NWS values.
T = Trace of Precipitation, MM = Missing Value Source: NWS Daily Summary

Daily Weather History Graph

Daily Weather History Graph

Search for Another Location

Airport or City:

Trip Planner

Search our weather history database for the weather conditions in past years. The results will help you decide how hot, cold, wet, or windy it might be!

Date:

Astronomy

Jul. 05, 2013 Rise Set
Actual Time 6:01 AM EDT 9:18 PM EDT
Civil Twilight 5:25 AM EDT 9:54 PM EDT
Nautical Twilight 4:39 AM EDT 10:39 PM EDT
Astronomical Twilight 3:43 AM EDT 11:35 PM EDT
Moon 4:01 AM EDT (7/5) 7:11 PM EDT (7/5)
Length of Visible Light 16h 28m
Length of Day
15h 17m
Waning Crescent, 6% of the Moon is Illuminated
Jul 5
Waning Crescent
Jul 8
New
Jul 15
First Quarter
Jul 22
Full
Jul 29
Last Quarter

Hourly Weather History & Observations

Time (EDT) Temp. Heat Index Dew Point Humidity Pressure Visibility Wind Dir Wind Speed Gust Speed Precip Events Conditions
12:13 AM 64.4 °F - 62.6 °F 94% 30.10 in 10.0 mi Calm Calm - N/A   Clear
12:33 AM 64.4 °F - 60.8 °F 88% 30.09 in 10.0 mi South 4.6 mph - N/A   Clear
12:53 AM 64.4 °F - 62.6 °F 94% 30.09 in 10.0 mi Calm Calm - N/A   Clear
1:13 AM 64.4 °F - 62.6 °F 94% 30.10 in 10.0 mi South 3.5 mph - N/A   Clear
1:33 AM 64.4 °F - 62.6 °F 94% 30.09 in 10.0 mi South 4.6 mph - N/A   Clear
1:53 AM 64.4 °F - 62.6 °F 94% 30.09 in 10.0 mi Calm Calm - N/A   Clear
2:13 AM 64.4 °F - 62.6 °F 94% 30.09 in 10.0 mi Calm Calm - N/A   Clear
2:33 AM 66.2 °F - 62.6 °F 88% 30.09 in 10.0 mi SW 3.5 mph - N/A   Clear
2:53 AM 66.2 °F - 62.6 °F 88% 30.09 in 10.0 mi Calm Calm - N/A   Clear
3:13 AM 64.4 °F - 62.6 °F 94% 30.08 in 10.0 mi Calm Calm - N/A   Clear
3:34 AM 66.2 °F - 62.6 °F 88% 30.08 in 10.0 mi Calm Calm - N/A   Clear
3:54 AM 66.2 °F - 64.4 °F 94% 30.08 in 10.0 mi Calm Calm - N/A   Clear
4:14 AM 64.4 °F - 64.4 °F 100% 30.08 in 10.0 mi Calm Calm - N/A   Clear
4:34 AM 66.2 °F - 64.4 °F 94% 30.08 in 10.0 mi Calm Calm - N/A   Clear
4:54 AM 66.2 °F - 64.4 °F 94% 30.09 in 10.0 mi Calm Calm - N/A   Scattered Clouds
5:14 AM 66.2 °F - 64.4 °F 94% 30.09 in 10.0 mi Calm Calm - N/A   Mostly Cloudy
5:34 AM 66.2 °F - 64.4 °F 94% 30.09 in 10.0 mi Calm Calm - N/A   Mostly Cloudy
5:54 AM 64.4 °F - 64.4 °F 100% 30.09 in 7.0 mi Calm Calm - N/A   Scattered Clouds
6:14 AM 64.4 °F - 64.4 °F 100% 30.09 in 7.0 mi Calm Calm - N/A   Clear
6:35 AM 64.4 °F - 64.4 °F 100% 30.09 in 5.0 mi Calm Calm - N/A   Clear
6:55 AM 64.4 °F - 64.4 °F 100% 30.10 in 5.0 mi Calm Calm - N/A   Clear
7:10 AM 64.4 °F - 64.4 °F 100% 30.11 in 5.0 mi Calm Calm - N/A   Clear
7:30 AM 66.2 °F - 66.2 °F 100% 30.09 in 5.0 mi Calm Calm - N/A   Clear
7:50 AM 68.0 °F - 66.2 °F 94% 30.10 in 7.0 mi Calm Calm - N/A   Clear
8:10 AM 69.8 °F - 64.4 °F 83% 30.10 in 7.0 mi Calm Calm - N/A   Clear
8:30 AM 69.8 °F - 64.4 °F 83% 30.10 in 7.0 mi Calm Calm - N/A   Clear
8:51 AM 69.8 °F - 66.2 °F 88% 30.10 in 7.0 mi Calm Calm - N/A   Clear
9:11 AM 69.8 °F - 66.2 °F 88% 30.11 in 7.0 mi Calm Calm - N/A   Clear
9:31 AM 71.6 °F - 64.4 °F 78% 30.11 in 7.0 mi Calm Calm - N/A   Scattered Clouds
9:51 AM 73.4 °F - 66.2 °F 78% 30.10 in 10.0 mi Calm Calm - N/A   Scattered Clouds
10:11 AM 73.4 °F - 66.2 °F 78% 30.11 in 10.0 mi Calm Calm - N/A   Clear
10:31 AM 77.0 °F - 66.2 °F 69% 30.11 in 10.0 mi Calm Calm - N/A   Clear
10:51 AM 77.0 °F - 64.4 °F 65% 30.11 in 10.0 mi Calm Calm - N/A   Clear
11:11 AM 78.8 °F - 64.4 °F 61% 30.11 in 10.0 mi Calm Calm - N/A   Clear
11:31 AM 78.8 °F - 66.2 °F 65% 30.11 in 10.0 mi Calm Calm - N/A   Scattered Clouds
11:51 AM 78.8 °F - 64.4 °F 61% 30.11 in 10.0 mi Calm Calm - N/A   Overcast
12:11 PM 80.6 °F 81.8 °F 62.6 °F 54% 30.11 in 10.0 mi Calm Calm - N/A   Scattered Clouds
12:31 PM 80.6 °F 81.8 °F 62.6 °F 54% 30.11 in 10.0 mi WSW 3.5 mph - N/A   Scattered Clouds
12:51 PM 78.8 °F - 62.6 °F 57% 30.11 in 10.0 mi WSW 3.5 mph - N/A   Mostly Cloudy
1:12 PM 80.6 °F 81.8 °F 62.6 °F 54% 30.11 in 10.0 mi SSW 3.5 mph - N/A   Mostly Cloudy
1:32 PM 82.4 °F 83.9 °F 64.4 °F 54% 30.10 in 10.0 mi WSW 3.5 mph - N/A   Scattered Clouds
1:52 PM 82.4 °F 83.4 °F 62.6 °F 51% 30.10 in 10.0 mi West 3.5 mph - N/A   Scattered Clouds
2:12 PM 80.6 °F 81.8 °F 62.6 °F 54% 30.10 in 10.0 mi WSW 4.6 mph - N/A   Scattered Clouds
2:32 PM 82.4 °F 83.4 °F 62.6 °F 51% 30.09 in 10.0 mi WSW 4.6 mph - N/A   Scattered Clouds
2:52 PM 82.4 °F 83.4 °F 62.6 °F 51% 30.09 in 10.0 mi Calm Calm - N/A   Scattered Clouds
3:12 PM 82.4 °F 83.9 °F 64.4 °F 54% 30.09 in 10.0 mi WSW 6.9 mph - N/A   Mostly Cloudy
3:32 PM 82.4 °F 83.4 °F 62.6 °F 51% 30.08 in 10.0 mi WSW 6.9 mph - N/A   Mostly Cloudy
3:53 PM 82.4 °F 83.4 °F 62.6 °F 51% 30.08 in 10.0 mi WSW 8.1 mph - N/A   Scattered Clouds
4:13 PM 82.4 °F 83.4 °F 62.6 °F 51% 30.07 in 10.0 mi WSW 5.8 mph - N/A   Scattered Clouds
4:33 PM 80.6 °F 81.8 °F 62.6 °F 54% 30.07 in 10.0 mi SW 9.2 mph - N/A   Scattered Clouds
4:53 PM 80.6 °F 81.8 °F 62.6 °F 54% 30.07 in 10.0 mi SW 6.9 mph - N/A   Scattered Clouds
5:13 PM 80.6 °F 81.8 °F 62.6 °F 54% 30.06 in 10.0 mi SW 6.9 mph - N/A   Scattered Clouds
5:33 PM 80.6 °F 82.3 °F 64.4 °F 58% 30.05 in 10.0 mi West 5.8 mph - N/A   Clear
5:53 PM 82.4 °F 83.9 °F 64.4 °F 54% 30.05 in 10.0 mi NNW 6.9 mph - N/A   Clear
6:13 PM 82.4 °F 83.4 °F 62.6 °F 51% 30.05 in 10.0 mi WSW 5.8 mph - N/A   Clear
6:34 PM 82.4 °F 83.4 °F 62.6 °F 51% 30.05 in 10.0 mi WSW 6.9 mph - N/A   Clear
6:54 PM 82.4 °F 83.4 °F 62.6 °F 51% 30.04 in 10.0 mi SW 6.9 mph - N/A   Clear
7:14 PM 80.6 °F 81.8 °F 62.6 °F 54% 30.05 in 10.0 mi NW 6.9 mph - N/A   Clear
7:34 PM 80.6 °F 81.8 °F 62.6 °F 54% 30.05 in 10.0 mi North 5.8 mph - N/A   Clear
7:54 PM 80.6 °F 81.8 °F 62.6 °F 54% 30.04 in 10.0 mi Calm Calm - N/A   Clear
8:14 PM 80.6 °F 81.8 °F 62.6 °F 54% 30.05 in 10.0 mi Calm Calm - N/A   Clear
8:34 PM 80.6 °F 81.8 °F 62.6 °F 54% 30.05 in 10.0 mi North 3.5 mph - N/A   Clear
8:55 PM 78.8 °F - 62.6 °F 57% 30.05 in 10.0 mi NNW 3.5 mph - N/A   Clear
9:15 PM 77.0 °F - 64.4 °F 65% 30.06 in 10.0 mi SW 3.5 mph - N/A   Clear
9:30 PM 75.2 °F - 64.4 °F 69% 30.06 in 10.0 mi North 3.5 mph - N/A   Clear
9:50 PM 73.4 °F - 66.2 °F 78% 30.06 in 10.0 mi Calm Calm - N/A   Clear
10:10 PM 71.6 °F - 66.2 °F 83% 30.07 in 10.0 mi SSE 4.6 mph - N/A   Clear
10:30 PM 71.6 °F - 66.2 °F 83% 30.08 in 10.0 mi South 3.5 mph - N/A   Clear
10:50 PM 71.6 °F - 64.4 °F 78% 30.07 in 10.0 mi Calm Calm - N/A   Clear
11:10 PM 71.6 °F - 66.2 °F 83% 30.07 in 10.0 mi Calm Calm - N/A   Clear
11:30 PM 71.6 °F - 66.2 °F 83% 30.07 in 10.0 mi Calm Calm - N/A   Clear
11:50 PM 69.8 °F - 66.2 °F 88% 30.08 in 10.0 mi South 3.5 mph - N/A   Clear